Terminal Aerodrome Forecast
Issued by NWS

Home | Current Version | Previous Version | Text Only | Print | Product List | Glossary On
Versions: 1 2 3 4 5 6 7 8 9 10 11 12 13 14 15 16 17 18
000
FTAK31 PAJN 200300 AAA
TAFAGY
TAF AMD
PAGY 200325Z 2003/2024 04005KT P6SM OVC100
     FM201200 VRB04KT P6SM VCSH BKN050 OVC080
     FM201500 21006KT P6SM -RA BKN040 OVC060
      AMD LTD TO CLD VIS AND WIND=

USA.gov is the U.S. government's official web portal to all federal, state and local government web resources and services.